Content
SEND FEEDBACK

Daily
Averages
Monthly
Summary
Switzerland

MUNCHENBUCHSEE, SWITZERLAND


Home > Europe > Switzerland
Elevation: 1949 feet     Latitude: 47 00N     Longitude: 007 24E

WEATHER
 
SELECT A DAY
Number of Records: 184,512;   Date Range: 7/1/96 - 10/20/14
 
SHARE

PRINT THIS DATA

[ ← Previous Day ]
WEATHER ALMANAC - FEBRUARY 13, 2013
[ Next Day → ]
[ °C ]   °F
Weather ElementAverageHighLow
Temperature27.4 °F32 °F (1:20 pm)19.4 °F (9:20 pm)
Dewpoint23.3 °F24.8 °F (12:50 am)15.8 °F (9:20 pm)
Humidity85 %93 % (1:20 am)75 % (1:20 pm)
Barometer30.07 in30.18 in (9:50 pm)29.92 in (12:50 am)
Wind Speed4.9 mph10.4 mph (3:20 pm)
Weather ElementAverage
Visibility3.3 mi
Wind DirectionSW (226.3 °)

Weather ElementTotal
Precipitation---
Heating Degree Days39.3 (Base 65)
Averaged from 48 records on February 13, 2013
WEATHER CONDITIONS BREAKOUT
WIND DIRECTION BREAKOUT
WEATHER BY HOUR - FEBRUARY 13, 2013
[ °C ]   °F
Local TimeTemperatureDewpointHumidityBarometerVisibilityWind DirectionWind SpeedGust SpeedPrecipitationEventsConditions
12:50 AM28.4 °F24.8 °F86 %29.92 in3.7 miWest (280°)5.8 mphMostly Cloudy
1:20 AM26.6 °F24.8 °F93 %29.95 in3.1 miWNW (300°)5.8 mphMostly Cloudy
1:50 AM26.6 °F24.8 °F93 %29.95 inWest (280°)6.9 mphOvercast
2:20 AM26.6 °F24.8 °F93 %29.95 in3.1 miWest (280°)5.8 mphMostly Cloudy
2:50 AM26.6 °F24.8 °F93 %29.95 inWNW (290°)5.8 mphMostly Cloudy
3:20 AM26.6 °F24.8 °F93 %29.95 inWest (280°)4.6 mphMostly Cloudy
3:50 AM26.6 °F24.8 °F93 %29.95 inWest (280°)4.6 mphOvercast
4:20 AM26.6 °F24.8 °F93 %29.98 inWNW (290°)5.8 mphMostly Cloudy
4:50 AM26.6 °F24.8 °F93 %29.98 in3.1 miWNW (300°)4.6 mphOvercast
5:20 AM26.6 °F24.8 °F93 %29.98 in3.1 miWest (280°)4.6 mphOvercast
5:36 AM26.6 °F24.8 °F93 %29.98 in3.1 miWNW (290°)6.9 mphOvercast
5:50 AM26.6 °F24.8 °F93 %29.98 in3.1 miWNW (290°)5.8 mphOvercast
6:20 AM26.6 °F23.0 °F86 %29.98 in3.1 miWNW (300°)4.6 mphMostly Cloudy
6:50 AM26.6 °F23.0 °F86 %30.01 in3.1 miWNW (300°)5.8 mphOvercast
7:20 AM26.6 °F23.0 °F86 %30.01 in3.1 miWNW (290°)5.8 mphOvercast
7:50 AM26.6 °F23.0 °F86 %30.04 inWNW (290°)4.6 mphOvercast
8:20 AM26.6 °F23.0 °F86 %30.04 inWest (280°)4.6 mphOvercast
8:50 AM26.6 °F23.0 °F86 %30.04 inWest (260°)4.6 mphOvercast
9:20 AM26.6 °F23.0 °F86 %30.04 inVariable3.5 mphOvercast
9:50 AM26.6 °F23.0 °F86 %30.06 in2.2 miWNW (300°)6.9 mphOvercast
10:20 AM26.6 °F23.0 °F86 %30.06 in2.2 miNW (320°)5.8 mphOvercast
10:50 AM28.4 °F23.0 °F80 %30.06 in2.2 miWest (270°)5.8 mphOvercast
11:20 AM28.4 °F23.0 °F80 %30.09 in1.9 miWest (270°)5.8 mphOvercast
11:50 AM28.4 °F23.0 °F80 %30.09 in2.2 miWNW (290°)5.8 mphOvercast
12:20 PM30.2 °F24.8 °F80 %30.09 in2.5 miNW (310°)4.6 mphOvercast
12:50 PM30.2 °F24.8 °F80 %30.09 in2.5 miWNW (290°)4.6 mphOvercast
1:20 PM32.0 °F24.8 °F75 %30.09 in3.1 miWSW (250°)3.5 mphMostly Cloudy
1:50 PM32.0 °F24.8 °F75 %30.09 in3.1 miWest (280°)4.6 mphMostly Cloudy
2:20 PM32.0 °F24.8 °F75 %30.09 in3.1 miNW (310°)8.1 mphMostly Cloudy
2:50 PM30.2 °F24.8 °F80 %30.09 in3.1 miNW (320°)9.2 mphMostly Cloudy
3:20 PM30.2 °F24.8 °F80 %30.09 in3.1 miWNW (300°)10.4 mphMostly Cloudy
3:50 PM30.2 °F24.8 °F80 %30.09 in3.1 miWNW (300°)8.1 mphMostly Cloudy
4:20 PM30.2 °F24.8 °F80 %30.12 in3.1 miWNW (300°)6.9 mphMostly Cloudy
4:50 PM30.2 °F24.8 °F80 %30.12 in3.1 miWNW (300°)5.8 mphMostly Cloudy
5:20 PM30.2 °F24.8 °F80 %30.12 in3.1 miWNW (300°)4.6 mphMostly Cloudy
5:50 PM30.2 °F24.8 °F80 %30.15 in3.1 miNorth (10°)4.6 mphOvercast
6:20 PM28.4 °F23.0 °F80 %30.15 in3.1 miVariable2.3 mphOvercast
6:50 PM28.4 °F23.0 °F80 %30.15 in3.7 miVariable2.3 mphMostly Cloudy
7:20 PM28.4 °F23.0 °F80 %30.15 in3.7 miVariable3.5 mphOvercast
7:50 PM28.4 °F23.0 °F80 %30.15 in3.7 miVariable1.2 mphOvercast
8:20 PM26.6 °F21.2 °F80 %30.15 in3.7 miVariable2.3 mphScattered Clouds
8:50 PM23.0 °F17.6 °F80 %30.15 in5.6 miNNE (30°)4.6 mphPartly Cloudy
9:20 PM19.4 °F15.8 °F86 %30.15 in3.7 miVariable2.3 mphMist
9:50 PM23.0 °F19.4 °F86 %30.18 in5.6 miVariable1.2 mphPartly Cloudy
10:20 PM21.2 °F19.4 °F93 %30.18 in5.6 miVariable1.2 mphMostly Cloudy
10:50 PM23.0 °F21.2 °F93 %30.15 in3.1 miNNW (330°)3.5 mphOvercast
11:20 PM24.8 °F21.2 °F86 %30.15 in3.7 miWNW (300°)3.5 mphOvercast
11:50 PM24.8 °F21.2 °F86 %30.15 in3.7 miNW (320°)3.5 mphOvercast
Hourly data recorded from LSZB, located miles away from Munchenbuchsee, Switzerland







STORIES FROM OUR PARTNERS